Powrót do katalogu

STARLINK-2364

AktywnyŁącznośćVLEO
NORAD 47904·PAYLOAD·🇺🇸 United States

Wystrzelony Mar 14, 2021 z Cape Canaveral Space Force Station

Loading…

Następne Przeloty (najbliższe 24 godziny)

TLE

ŚwieżeSource: CelesTrak SupGP

Epoka: Sep 14, 2026, 20:20 UTC

1 47904C 21021AW  26257.84770833 -.00008442  00000+0 -27163-3 0  2570
2 47904  53.1575  94.9618 0001195  81.4846 331.4105 15.31689387    15

Śledź STARLINK-2364 w czasie rzeczywistym z AllMySat

Download on the App Store